CAPE
2 2 1 1 0 0 0 0 0 0 0 0 0 0 0 0 0 0 0 0 0 0 0 0 1 1 0 0 0 0 0 0 0 0 0 0 0 0 0 0 0 12 48 12 17 26 6
3 4 3 2 0 0 0 0 0 0 0 0 0 0 0 0 0 0 0 0 0 0 0 0 2 0 0 0 0 0 0 0 0 0 0 0 0 0 0 0 0 0 42 27 46 57 42
4 4 2 1 0 0 0 0 0 0 0 0 0 0 0 0 0 0 0 0 0 0 0 0 1 0 0 0 0 0 0 0 0 0 0 0 0 0 0 0 0 0 7 72 37 0 73
3 2 2 0 0 0 0 0 0 0 0 0 0 0 0 0 0 0 0 0 0 0 0 0 1 2 0 0 0 0 0 0 0 0 0 0 0 0 0 0 0 2 0 5 8 24 62
1 1 0 0 0 0 0 0 0 0 0 0 0 0 0 0 0 0 0 0 0 0 0 0 0 0 0 0 0 0 0 0 0 0 0 0 0 0 0 0 0 0 0 0 0 1 50
0 0 1 0 0 0 0 0 0 0 0 0 0 0 0 0 0 0 0 0 0 0 0 0 0 0 0 0 0 0 0 0 0 0 0 0 0 0 0 0 0 0 0 0 0 0 55
0 0 0 0 0 0 0 0 0 0 0 0 0 0 0 0 0 0 0 0 0 0 0 0 0 0 0 0 0 0 0 0 0 0 0 0 0 0 0 0 0 0 0 0 0 0 4
0 0 0 0 0 0 0 0 0 0 0 0 0 0 0 0 0 0 0 0 0 0 0 0 0 0 0 0 0 0 0 0 0 0 0 0 0 0 0 0 0 0 0 0 0 0 0
0 0 0 0 0 0 0 0 0 0 0 0 0 0 0 0 0 0 0 0 0 0 0 0 0 0 0 0 0 0 0 0 0 0 0 0 0 0 0 0 0 0 0 0 0 0 0
0 0 0 0 0 0 0 0 0 0 0 0 0 0 0 0 0 0 0 0 0 0 0 0 0 0 0 0 0 0 0 0 0 0 0 0 0 0 0 0 0 0 0 0 0 0 0
0 0 0 0 0 0 0 0 0 0 0 0 0 0 0 0 0 0 0 0 0 0 0 0 0 0 0 0 0 0 0 0 0 0 0 0 0 0 0 0 0 0 0 0 0 0 0
0 0 0 0 0 0 0 0 0 0 0 0 0 0 0 0 0 0 0 0 0 0 0 0 0 0 0 0 0 0 0 0 0 0 0 0 0 0 0 0 0 0 0 0 0 0 0
0 0 0 0 0 0 0 0 0 0 0 0 0 0 0 0 0 0 0 0 0 0 0 0 0 0 0 0 0 0 0 0 0 0 0 0 0 0 0 0 0 0 0 0 0 0 0
0 0 0 0 0 0 0 0 0 0 0 0 0 0 0 0 0 0 0 0 0 0 0 0 0 0 0 0 0 0 0 0 0 0 0 0 0 0 0 0 0 0 0 0 0 0 0
0 0 0 0 0 0 0 0 0 0 0 0 0 0 0 0 0 0 0 0 0 0 0 0 0 0 0 0 0 0 0 0 0 0 0 0 0 0 0 0 0 0 0 0 0 0 0
0 0 0 0 0 0 0 0 0 0 0 0 0 0 0 0 0 0 0 0 0 0 0 0 0 0 0 0 0 0 0 0 0 0 0 0 0 0 0 0 0 0 0 0 0 0 0
0 0 0 0 0 0 0 0 0 0 0 0 0 0 0 0 0 0 0 0 0 0 0 0 25 2 0 1 0 0 0 0 0 0 0 0 0 0 0 0 0 0 0 0 0 0 0
0 0 0 0 0 0 0 0 0 0 0 0 0 0 0 0 0 0 0 0 0 0 0 2 18 1 0 0 0 0 12 12 0 0 0 0 0 0 0 0 0 0 0 0 0 0 0
0 0 0 0 0 0 0 0 0 0 0 0 0 0 0 0 0 0 0 0 0 0 3 0 3 5 2 36 5 4 10 9 1 0 0 0 0 0 0 0 0 0 0 0 0 0 0
0 0 0 0 0 0 0 0 0 0 0 0 0 0 0 0 0 0 0 0 0 19 7 17 0 0 13 27 1 0 4 0 0 0 0 0 0 0 0 0 0 0 0 0 0 0 0
0 0 0 0 0 0 0 0 0 0 0 0 0 0 0 0 0 0 0 7 9 25 10 20 6 18 3 0 0 10 1 0 0 0 0 0 0 0 0 0 0 1 0 0 0 0 0
0 0 0 0 0 0 0 0 1 1 0 0 0 0 0 0 0 0 0 9 21 29 29 6 33 14 2 2 0 0 0 0 0 0 0 0 0 0 0 0 0 0 0 0 0 0 0
0 0 0 0 0 0 0 1 4 5 8 2 6 1 0 0 0 0 0 1 3 23 6 33 18 2 10 14 28 12 0 0 0 0 0 0 0 0 0 0 0 0 0 0 0 0 0
0 0 0 0 0 1 3 9 6 5 13 19 4 1 1 0 2 0 0 0 1 12 8 47 29 7 51 26 20 0 0 0 0 0 0 0 0 0 0 0 0 0 0 1 0 0 0
0 0 0 0 1 4 5 2 5 4 8 12 19 0 0 0 1 0 0 7 0 1 50 36 27 15 0 29 1 0 0 0 0 0 0 0 0 0 0 0 0 0 0 0 1 7 8
0 0 0 0 3 3 1 5 9 13 11 17 5 0 2 0 0 2 1 0 0 6 2 14 41 25 8 10 2 0 0 0 0 0 0 0 0 0 0 0 0 0 0 0 0 4 0
0 0 0 1 5 1 5 8 10 13 9 17 5 0 1 1 0 1 5 3 5 3 3 6 4 14 1 0 1 0 0 0 0 0 0 0 0 0 0 0 0 0 0 0 0 0 0
0 0 1 3 3 5 6 7 9 9 11 12 3 1 0 0 0 0 3 6 5 3 6 4 0 0 4 0 3 1 0 0 0 0 0 3 0 0 0 0 0 0 0 0 0 0 0
0 2 1 2 3 5 6 8 6 7 6 13 4 0 1 2 0 0 0 0 1 0 4 7 2 3 15 12 2 0 0 0 0 0 0 0 0 0 0 0 0 0 0 0 0 0 0
CIN
-0 -0 -0 -0 -0 -0 -0 -0 -0 -0 -0 -0 -0 -0 -0 -0 -0 -0 -0 -0 -0 -0 -0 -0 -0 -0 -0 -0 -0 -0 -0 -0 -0 -0 -0 -0 -0 -0 -0 -0 -0 -11 -50 -39 -61 -113 -44
-0 -0 -0 -0 -0 -0 -0 -0 -0 -0 -0 -0 -0 -0 -0 -0 -0 -0 -0 -0 -0 -0 -0 -0 -0 -0 -0 -0 -0 -0 -0 -0 -0 -0 -0 -0 -0 -0 -0 -0 -0 -0 -53 -61 -67 -58 -71
-0 -0 -0 -0 -0 -0 -0 -0 -0 -0 -0 -0 -0 -0 -0 -0 -0 -0 -0 -0 -0 -0 -0 -0 -0 -0 -0 -0 -0 -0 -0 -0 -0 -0 -0 -0 -0 -0 -0 -0 -0 -0 -18 -30 -47 -0 -24
-0 -0 -0 -0 -0 -0 -0 -0 -0 -0 -0 -0 -0 -0 -0 -0 -0 -0 -0 -0 -0 -0 -0 -0 -0 -0 -0 -0 -0 -0 -0 -0 -0 -0 -0 -0 -0 -0 -0 -0 -0 -34 -1 -0 -69 -54 -35
-0 -0 -0 -0 -0 -0 -0 -0 -0 -0 -0 -0 -0 -0 -0 -0 -0 -0 -0 -0 -0 -0 -0 -0 -0 -0 -0 -0 -0 -0 -0 -0 -0 -0 -0 -0 -0 -0 -0 -0 -0 -0 -0 -2 -0 -14 -8
-0 -0 -0 -0 -0 -0 -0 -0 -0 -0 -0 -0 -0 -0 -0 -0 -0 -0 -0 -0 -0 -0 -0 -0 -0 -0 -0 -0 -0 -0 -0 -0 -0 -0 -0 -0 -0 -0 -0 -0 -0 -0 -0 -0 -0 -0 -4
-0 -0 -0 -0 -0 -0 -0 -0 -0 -0 -0 -0 -0 -0 -0 -0 -0 -0 -0 -0 -0 -0 -0 -0 -0 -0 -0 -0 -0 -0 -0 -0 -0 -0 -0 -0 -0 -0 -0 -0 -0 -0 -0 -0 -0 -0 -38
-0 -0 -0 -0 -0 -0 -0 -0 -0 -0 -0 -0 -0 -0 -0 -0 -0 -0 -0 -0 -0 -0 -0 -0 -0 -0 -0 -0 -0 -0 -0 -0 -0 -0 -0 -0 -0 -0 -0 -0 -0 -0 -0 -0 -0 -0 -5
-0 -0 -0 -0 -0 -0 -0 -0 -0 -0 -0 -0 -0 -0 -0 -0 -0 -0 -0 -0 -0 -0 -0 -0 -0 -0 -0 -0 -0 -0 -0 -0 -0 -0 -0 -0 -0 -0 -0 -0 -0 -0 -0 -0 -0 -0 -0
-0 -0 -0 -0 -0 -0 -0 -0 -0 -0 -0 -0 -0 -0 -0 -0 -0 -0 -0 -0 -0 -0 -0 -0 -0 -0 -0 -0 -0 -0 -0 -0 -0 -0 -0 -0 -0 -0 -0 -0 -0 -0 -0 -0 -0 -0 -0
-0 -0 -0 -0 -0 -0 -0 -0 -0 -0 -0 -0 -0 -0 -0 -0 -0 -0 -0 -0 -0 -0 -0 -0 -0 -0 -0 -0 -0 -0 -0 -0 -0 -0 -0 -0 -0 -0 -0 -0 -0 -0 -0 -0 -0 -0 -0
-0 -0 -0 -0 -0 -0 -0 -0 -0 -0 -0 -0 -0 -0 -0 -0 -0 -0 -0 -0 -0 -0 -0 -0 -0 -0 -0 -0 -0 -0 -0 -0 -0 -0 -0 -0 -0 -0 -0 -0 -0 -0 -0 -0 -0 -0 -0
-0 -0 -0 -0 -0 -0 -0 -0 -0 -0 -0 -0 -0 -0 -0 -0 -0 -0 -0 -0 -0 -0 -0 -0 -0 -0 -0 -0 -0 -0 -0 -0 -0 -0 -0 -0 -0 -0 -0 -0 -0 -0 -0 -0 -0 -0 -0
-0 -0 -0 -0 -0 -0 -0 -0 -0 -0 -0 -0 -0 -0 -0 -0 -0 -0 -0 -0 -0 -0 -0 -0 -0 -0 -0 -0 -0 -0 -0 -0 -0 -0 -0 -0 -0 -0 -0 -0 -0 -0 -0 -0 -0 -0 -0
-0 -0 -0 -0 -0 -0 -0 -0 -0 -0 -0 -0 -0 -0 -0 -0 -0 -0 -0 -0 -0 -0 -0 -0 -0 -0 -0 -0 -0 -0 -0 -0 -0 -0 -0 -0 -0 -0 -0 -0 -0 -0 -0 -0 -0 -0 -0
-0 -0 -0 -0 -0 -0 -0 -0 -0 -0 -0 -0 -0 -0 -0 -0 -0 -0 -0 -0 -0 -0 -0 -0 -0 -0 -0 -0 -0 -0 -0 -0 -0 -0 -0 -0 -0 -0 -0 -0 -0 -0 -0 -0 -0 -0 -0
-0 -0 -0 -0 -0 -0 -0 -0 -0 -0 -0 -0 -0 -0 -0 -0 -0 -0 -0 -0 -0 -0 -0 -0 -7 -7 -0 -4 -0 -0 -0 -0 -0 -0 -0 -0 -0 -0 -0 -0 -0 -0 -0 -0 -0 -0 -0
-0 -0 -0 -0 -0 -0 -0 -0 -0 -0 -0 -0 -0 -0 -0 -0 -0 -0 -0 -0 -0 -6 -0 -33 -31 -12 -0 -0 -0 -0 -0 -0 -0 -0 -0 -0 -0 -0 -0 -0 -0 -0 -0 -0 -0 -0 -0
-0 -0 -0 -0 -0 -0 -0 -0 -0 -0 -0 -0 -0 -0 -0 -0 -0 -0 -0 -0 -1 -0 -51 -14 -45 -42 -7 -25 -8 -16 -5 -0 -1 -0 -0 -0 -0 -0 -0 -0 -0 -0 -0 -0 -0 -0 -0
-0 -0 -0 -0 -0 -0 -0 -0 -0 -0 -0 -0 -0 -0 -0 -0 -0 -0 -0 -0 -5 -23 -21 -14 -0 -9 -12 -23 -11 -0 -6 -3 -0 -0 -0 -1 -0 -0 -0 -0 -0 -0 -0 -0 -0 -0 -0
-0 -0 -0 -0 -0 -0 -0 -0 -0 -0 -0 -0 -0 -0 -0 -0 -0 -0 -0 -6 -9 -13 -10 -5 -3 -9 -27 -6 -0 -12 -5 -0 -0 -0 -0 -0 -0 -0 -0 -0 -0 -10 -0 -0 -0 -0 -0
-0 -0 -0 -0 -0 -0 -0 -0 -0 -3 -0 -0 -0 -0 -0 -0 -0 -0 -0 -8 -2 -4 -3 -8 -2 -11 -22 -23 -0 -0 -0 -0 -0 -0 -0 -0 -0 -0 -0 -0 -0 -0 -0 -0 -0 -0 -0
-0 -0 -0 -0 -0 -0 -0 -0 -0 -3 -3 -0 -5 -1 -0 -0 -0 -0 -0 -3 -3 -3 -6 -1 -2 -6 -3 -9 -10 -12 -0 -0 -0 -0 -0 -0 -0 -0 -0 -0 -0 -0 -0 -0 -0 -0 -0
-0 -0 -0 -0 -0 -0 -0 -0 -1 -3 -2 -0 -1 -2 -0 -0 -0 -0 -0 -0 -7 -2 -4 -3 -3 -8 -28 -26 -43 -4 -0 -0 -0 -0 -0 -0 -0 -0 -0 -0 -0 -0 -29 -6 -0 -0 -0
-0 -0 -0 -0 -0 -0 -0 -2 -1 -4 -5 -0 -0 -1 -0 -0 -0 -0 -0 -0 -0 -12 -9 -10 -14 -33 -4 -24 -2 -0 -0 -0 -0 -0 -0 -0 -0 -0 -0 -0 -0 -0 -0 -5 -11 -181 -385
-0 -0 -0 -0 -0 -0 -1 -1 -0 -0 -2 -0 -1 -0 -0 -0 -0 -0 -0 -0 -0 -7 -19 -21 -23 -10 -20 -21 -12 -0 -0 -0 -0 -0 -0 -0 -0 -0 -0 -0 -0 -0 -0 -0 -0 -196 -0
-0 -0 -0 -0 -0 -0 -0 -0 -0 -0 -1 -0 -2 -0 -0 -0 -0 -0 -0 -0 -0 -0 -0 -2 -24 -10 -4 -0 -11 -0 -0 -0 -0 -0 -0 -0 -0 -0 -0 -0 -0 -0 -0 -0 -0 -0 -0
-0 -0 -0 -0 -0 -0 -0 -0 -0 -0 -0 -0 -0 -2 -0 -0 -0 -0 -0 -0 -0 -0 -0 -9 -0 -1 -2 -0 -0 -0 -0 -0 -0 -0 -0 -3 -0 -0 -0 -0 -0 -0 -0 -0 -0 -0 -0
-0 -0 -0 -0 -0 -0 -0 -0 -0 -0 -0 -0 -0 -0 -0 -0 -0 -0 -0 -0 -1 -0 -0 -1 -2 -10 -1 -1 -2 -0 -0 -0 -0 -0 -0 -0 -0 -0 -0 -0 -0 -0 -0 -0 -0 -0 -0
Wind_Speed
32 32 33 33 34 35 36 36 37 38 39 40 41 41 42 42 42 42 42 41 40 38 37 34 29 20 16 19 18 21 21 10 14 14 14 16 35 15 28 27 32 31 3 16 19 14 3
33 33 34 34 35 36 37 38 38 39 40 41 42 42 43 44 44 44 44 42 41 40 38 32 25 17 15 23 19 21 16 6 4 16 14 13 16 13 20 38 36 33 12 10 15 27 5
34 34 35 35 36 37 37 38 39 40 41 42 43 44 44 45 45 45 44 44 43 42 37 29 24 15 18 11 14 18 3 5 3 13 12 16 15 23 11 26 35 38 31 11 35 23 11
34 34 35 35 36 37 38 39 40 41 43 44 45 45 46 46 46 45 45 45 46 41 32 29 21 17 26 24 12 33 33 6 4 7 10 11 19 38 39 29 38 40 39 32 29 20 25
33 34 35 36 37 38 40 41 43 44 45 46 47 48 48 49 48 46 46 46 43 35 22 22 17 21 36 30 14 19 8 8 4 9 8 18 16 23 37 30 41 40 41 38 36 30 6
33 35 36 38 39 40 41 43 44 45 46 48 49 50 50 50 49 47 47 46 40 24 21 19 24 29 27 25 16 14 13 15 9 11 12 15 21 25 28 23 31 29 35 31 37 37 8
35 36 37 39 40 41 43 44 46 47 49 50 50 51 51 51 50 47 44 38 42 31 35 38 39 38 51 33 34 13 13 16 14 13 15 15 21 27 22 21 33 31 38 32 33 21 26
36 37 38 39 40 41 43 45 47 48 49 50 52 51 52 52 50 44 36 41 40 41 55 43 32 32 26 45 38 31 12 18 20 19 17 20 28 20 25 28 39 39 42 42 29 37 12
36 37 38 39 41 42 43 44 45 47 48 49 50 52 51 51 45 34 40 42 42 43 43 42 31 33 33 32 38 48 26 21 27 25 24 24 26 30 28 25 25 43 40 41 34 33 28
35 36 37 38 40 40 41 42 44 46 48 50 51 52 52 50 30 38 37 43 42 38 38 32 24 26 27 29 41 30 37 26 33 34 25 28 38 18 27 26 26 25 38 42 40 37 36
34 36 36 37 38 40 41 43 45 47 48 50 52 52 51 42 27 31 34 40 35 34 42 30 29 28 41 17 29 30 32 37 35 33 30 28 24 26 23 23 23 36 25 44 46 43 39
33 34 35 36 37 39 41 43 46 48 49 52 55 52 47 32 23 20 31 33 29 31 37 30 35 38 38 33 37 37 30 39 35 41 42 48 34 35 48 28 34 35 34 37 42 43 50
31 32 33 35 37 40 42 44 46 49 52 52 52 50 40 22 24 26 27 33 31 33 37 37 44 40 40 35 32 30 38 44 42 42 52 42 54 39 36 38 27 37 31 34 34 33 32
30 31 33 34 37 40 42 45 48 50 54 52 52 31 22 15 17 21 29 30 33 31 41 44 43 43 37 33 32 34 33 43 48 44 39 46 44 45 37 41 29 25 26 28 31 29 38
30 31 32 34 37 40 41 44 50 52 56 54 49 31 22 21 13 20 28 27 30 29 33 41 43 39 38 36 31 32 33 34 45 44 52 47 59 30 54 34 37 30 37 32 32 29 29
28 30 32 34 37 38 40 43 46 53 56 54 44 28 21 18 21 19 20 18 26 29 32 38 38 35 38 34 32 29 30 22 26 27 44 57 45 48 42 48 47 46 26 34 38 38 40
28 29 32 34 35 38 40 42 45 50 54 51 33 29 24 23 22 16 18 21 29 30 32 35 38 34 33 28 32 32 31 36 22 27 32 40 55 57 44 50 57 40 36 35 36 37 36
28 29 32 33 34 36 38 40 43 47 51 44 32 29 22 31 25 21 24 24 25 28 31 31 30 29 31 33 32 34 37 32 31 29 33 34 39 57 57 46 51 42 45 33 39 43 41
28 30 32 32 33 34 36 38 40 45 46 36 32 23 24 34 24 27 21 21 23 24 27 32 30 30 33 28 32 30 33 29 30 32 28 30 35 49 56 48 46 55 43 47 36 33 47
29 31 32 31 32 33 34 35 36 41 42 34 28 30 32 24 26 26 24 22 22 17 15 21 30 32 30 30 28 34 36 30 32 34 32 32 40 47 51 52 40 48 47 42 38 43 48
30 31 31 29 30 31 31 31 33 38 36 28 27 27 30 24 19 17 12 16 21 18 12 22 33 30 31 32 32 28 30 32 32 33 28 27 38 42 47 45 40 41 45 41 51 41 44
30 31 29 27 28 30 27 28 29 33 32 22 27 28 26 21 13 13 16 19 19 18 16 22 32 29 29 33 27 33 31 30 29 32 28 27 32 33 42 42 40 40 45 38 40 47 42
31 29 26 26 27 27 25 25 27 27 25 24 23 20 23 20 18 13 12 16 20 15 14 12 21 32 30 32 32 35 34 34 33 33 34 31 26 30 40 36 32 33 40 40 41 38 45
24 25 25 24 27 24 23 24 25 23 19 17 18 19 21 21 16 11 10 11 15 13 15 7 12 29 33 33 37 35 35 34 34 34 28 38 32 30 35 27 38 29 25 28 40 36 44
22 25 25 24 26 23 21 21 21 18 16 14 14 16 17 17 14 10 11 12 13 12 11 6 27 17 23 30 31 30 26 29 31 32 29 33 32 30 31 32 28 29 20 20 31 20 18
23 25 25 26 26 22 16 17 16 17 14 13 9 10 13 14 14 10 9 9 9 15 14 11 11 15 24 24 24 25 26 21 17 23 27 30 32 31 28 34 35 21 23 25 19 21 14
22 25 24 22 16 11 9 10 15 16 13 12 13 9 11 12 11 11 12 12 11 7 7 8 9 6 14 15 21 20 24 20 20 19 30 30 31 33 34 30 26 20 23 18 24 19 11
21 18 15 12 12 10 8 12 14 11 9 9 11 9 8 11 10 9 10 9 9 6 9 3 7 6 11 10 14 16 19 17 17 13 13 25 32 33 28 30 31 18 10 11 13 7 8
15 15 13 10 9 9 11 11 10 8 9 10 11 11 7 10 11 13 7 4 3 7 3 8 6 6 10 14 16 16 19 19 20 16 16 18 19 30 25 17 15 17 16 10 10 10 10
Wind_Direction
359 357 355 353 351 348 346 344 342 339 337 334 331 328 325 321 317 314 313 311 309 305 305 310 317 335 338 313 302 280 304 337 151 164 174 174 187 181 182 203 197 197 254 150 189 146 253
1 358 355 353 350 348 345 344 342 340 337 335 332 330 327 324 321 317 314 312 311 310 307 316 322 329 325 302 312 197 300 344 140 167 176 186 247 230 258 213 206 221 175 177 304 268 7
1 358 355 353 351 348 346 344 341 339 337 335 333 330 328 325 321 317 315 313 312 310 309 315 317 319 307 282 319 298 189 289 177 174 184 180 193 250 224 258 207 232 258 263 211 195 164
1 358 355 352 348 345 343 341 339 338 337 335 332 329 327 324 320 317 315 313 310 309 312 312 313 309 297 302 217 224 244 263 219 188 203 243 248 243 243 258 245 224 230 207 196 195 200
356 355 352 349 346 345 345 344 344 343 341 338 336 333 330 327 322 318 316 314 313 324 327 322 315 302 289 294 293 269 252 204 213 252 230 255 246 250 246 254 244 238 228 234 243 198 222
351 353 353 353 352 351 349 348 347 346 344 341 338 335 331 329 327 321 322 319 331 341 338 331 305 297 291 293 300 272 255 264 229 252 242 241 252 250 250 242 197 252 251 258 243 227 204
357 359 359 359 358 356 353 349 347 346 343 342 339 336 332 329 327 321 333 340 334 325 317 305 291 282 264 277 288 259 235 251 242 235 224 221 242 201 207 229 251 254 248 252 253 264 257
3 4 3 1 360 357 356 354 352 352 351 347 341 339 339 335 331 329 345 337 333 319 299 307 291 279 262 265 272 268 230 233 231 225 228 242 209 216 250 249 246 246 244 245 261 244 212
8 6 3 1 359 359 360 359 358 356 354 353 350 346 344 340 336 350 339 337 332 325 313 309 304 290 278 267 262 248 255 227 242 234 222 226 240 247 247 244 239 244 246 245 254 251 260
9 10 9 7 5 4 3 1 359 357 355 353 350 347 344 334 352 345 342 341 337 331 311 314 316 315 318 266 264 251 252 241 246 243 236 243 241 232 239 240 241 239 245 245 247 252 256
12 10 10 9 8 5 3 1 359 356 354 352 348 345 332 333 353 351 349 346 345 329 298 306 310 310 316 269 276 261 246 248 239 242 236 226 230 228 219 215 238 248 247 241 240 250 256
13 12 11 11 9 7 4 2 358 356 353 344 337 326 324 354 2 359 350 351 349 316 298 299 310 304 301 293 273 266 247 243 246 243 247 244 249 245 238 247 247 244 247 248 246 250 247
14 12 11 10 8 6 3 1 359 355 350 325 320 316 334 359 5 359 357 349 336 310 320 308 298 298 294 293 280 284 255 238 234 233 239 243 238 242 244 240 241 238 238 243 246 240 250
13 11 10 8 6 4 1 359 355 353 346 324 319 319 1 3 0 358 353 350 328 329 316 313 301 284 285 298 281 283 263 240 238 236 241 239 241 234 236 238 234 225 226 242 245 245 250
10 9 8 6 3 1 1 359 350 348 341 326 327 2 7 6 5 0 353 352 345 341 332 319 300 277 280 283 276 281 266 253 243 234 237 237 237 245 233 239 236 231 235 243 254 255 255
9 7 5 2 1 1 0 358 356 345 344 329 356 6 13 22 9 8 0 349 350 348 340 316 296 284 274 276 270 272 257 262 262 262 250 240 248 238 239 235 236 236 237 236 241 242 243
5 4 2 360 360 359 358 357 355 353 343 332 9 8 27 17 11 6 353 358 351 351 338 316 291 279 273 273 269 263 245 267 281 268 269 249 236 232 235 229 226 231 234 235 241 244 243
2 0 358 358 358 358 358 357 356 354 339 0 11 10 17 7 8 13 7 4 358 357 343 321 298 283 272 274 265 260 248 257 280 277 260 253 241 231 231 232 230 237 233 231 235 235 240
358 356 355 356 357 357 357 356 357 352 349 5 8 13 13 5 10 4 10 8 7 8 353 324 300 292 283 273 265 258 254 265 270 267 263 259 235 227 228 236 235 228 230 232 238 241 233
355 353 353 354 355 356 356 357 359 352 352 7 10 5 6 17 11 9 9 9 9 12 11 352 307 291 286 269 266 254 259 262 266 263 275 268 235 229 227 227 231 228 227 230 234 233 229
353 352 353 354 355 355 356 359 358 354 360 11 13 9 9 5 10 8 2 6 12 12 9 357 307 295 284 264 266 257 263 268 268 258 267 261 233 236 232 230 234 245 225 229 228 231 231
354 353 355 356 356 355 357 358 359 356 2 15 6 6 12 3 12 8 13 14 10 12 12 358 302 293 284 264 260 262 259 258 255 260 265 262 234 247 229 228 236 243 225 228 232 230 235
353 354 355 355 354 355 357 358 359 2 10 11 14 16 13 12 13 11 15 9 6 14 23 10 276 287 283 268 270 266 255 253 252 253 258 249 248 242 222 227 237 235 231 225 230 232 231
356 355 355 354 355 356 358 359 360 3 8 9 12 12 10 6 12 4 343 354 6 4 6 357 254 298 288 283 280 263 256 251 248 248 254 241 246 237 221 225 224 230 234 255 229 231 230
355 355 355 355 355 356 357 359 1 3 6 6 11 14 12 6 12 355 12 7 8 6 16 6 351 321 264 284 264 251 246 241 242 241 242 239 237 230 223 224 228 223 259 260 231 225 266
356 355 355 355 355 355 354 0 3 5 8 9 8 23 24 15 20 33 350 6 2 26 27 37 275 284 303 286 250 232 232 237 249 242 234 239 237 229 225 220 219 242 273 261 242 218 275
354 354 354 355 348 318 330 359 6 7 10 18 18 38 35 21 20 38 33 27 29 36 42 48 288 239 4 281 230 239 229 248 242 257 226 229 229 225 225 230 233 264 287 258 218 226 249
352 347 339 322 304 305 341 4 8 10 18 34 33 56 45 28 20 32 39 33 41 70 59 57 79 235 282 293 245 248 234 243 250 263 246 231 223 224 228 230 229 287 287 207 217 234 230
322 307 306 314 324 347 2 5 10 21 36 53 50 63 77 55 40 32 27 77 113 173 136 107 104 205 219 284 273 271 251 248 265 251 268 231 239 232 234 238 254 250 243 283 251 244 252